This is the latest recevied weather packets stored in our database for station/object SV9TNF-57. If no packets are shown the sender has not sent any weather packets the latest 10 day(s).
| Time | Temp. | Humidity | Pressure | Rain* | Wind** | Luminosity | Snow |
|---|---|---|---|---|---|---|---|
| 1788147457 | 25° C | 51% | 995.3 hPa | 0 mm | 2.68 m/s, 277° | - | - |
| 1788147156 | 25° C | 51% | 995.3 hPa | 0 mm | 1.34 m/s, 312° | - | - |
| 1788146856 | 25° C | 50% | 995.2 hPa | 0 mm | 6.71 m/s, 298° | - | - |
| 1788146557 | 24.44° C | 50% | 995.3 hPa | 0 mm | 2.68 m/s, 275° | - | - |
| 1788146256 | 24.44° C | 50% | 995.2 hPa | 0 mm | 2.24 m/s, 341° | - | - |
| 1788145956 | 25° C | 49% | 995.3 hPa | 0 mm | 0 m/s | - | - |
| 1788145656 | 25° C | 50% | 995.4 hPa | 0 mm | 0.89 m/s, 342° | - | - |
| 1788145356 | 25° C | 50% | 995.3 hPa | 0 mm | 0.45 m/s, 275° | - | - |
| 1788145056 | 25° C | 50% | 995.5 hPa | 0 mm | 2.24 m/s, 275° | - | - |
| 1788144756 | 25° C | 50% | 995.3 hPa | 0 mm | 2.24 m/s, 284° | - | - |
| 1788144455 | 25° C | 50% | 995.5 hPa | 0 mm | 0.89 m/s, 340° | - | - |
| 1788144156 | 24.44° C | 50% | 995.5 hPa | 0 mm | 0 m/s | - | - |
| 1788143855 | 24.44° C | 51% | 995.6 hPa | 0 mm | 0 m/s | - | - |
| 1788143555 | 25° C | 51% | 995.7 hPa | 0 mm | 0 m/s | - | - |
| 1788143255 | 25.56° C | 47% | 995.7 hPa | 0 mm | 0 m/s | - | - |
| 1788142955 | 25.56° C | 47% | 995.7 hPa | 0 mm | 0.45 m/s, 292° | - | - |
| 1788142655 | 25.56° C | 48% | 995.9 hPa | 0 mm | 0 m/s | - | - |
| 1788142355 | 25.56° C | 47% | 995.7 hPa | 0 mm | 2.68 m/s, 303° | - | - |
| 1788142055 | 25° C | 49% | 995.7 hPa | 0 mm | 1.34 m/s, 281° | - | - |
| 1788141755 | 24.44° C | 55% | 995.7 hPa | 0 mm | 0.45 m/s, 291° | - | - |
| 1788141455 | 24.44° C | 60% | 995.7 hPa | 0 mm | 0 m/s | - | - |
| 1788141154 | 24.44° C | 63% | 995.7 hPa | 0 mm | 0 m/s | - | - |
| 1788140855 | 24.44° C | 63% | 995.7 hPa | 0 mm | 0.89 m/s, 269° | - | - |
| 1788140554 | 23.89° C | 64% | 995.8 hPa | 0 mm | 0 m/s | - | - |
| 1788140254 | 23.89° C | 65% | 995.6 hPa | 0 mm | 0 m/s | - | - |
* Rain latest hour (hover to see other rain measurements)
** Current wind speed in m/s (hover to see current wind gust speed)